Hourly Data Report for November 02, 2017

VICTORIA UNIVERSITY CS
BRITISH COLUMBIA

48°27'25.200" N
123°18'16.600" W
60.10 m
1018598
71783
WYJ

Download Data

Hourly Data (November 2017)
Hourly Data Report for November 2, 2017
TIME
LST
Temp Definition
°C
Dew Point Definition
°C
Rel Hum Definition
%
Precip. Amount Definition
mm

Wind Dir Definition
10's deg

Wind Spd Definition
km/h
Visibility Definition
km
Stn Press Definition
kPa
Hmdx Definition


Wind Chill Definition


Weather Definition


00:00 8.0 5.5 84 0.0 25 9   99.87     LegendNANA
01:00 8.4 5.5 82 0.0 24 13   99.86     LegendNANA
02:00 8.0 4.8 81 0.0 25 8   99.86     LegendNANA
03:00 7.9 4.4 78 0.0 24 9   99.81     LegendNANA
04:00 8.2 4.8 79 0.0 23 5   99.79     LegendNANA
05:00 8.2 6.7 90 0.0 18 7   99.70     LegendNANA
06:00 7.8 6.7 93 0.8 15 4   99.59     LegendNANA
07:00 7.4 6.2 92 0.0 9 3   99.51     LegendNANA
08:00 7.3 6.1 92 0.2 10 2   99.43     LegendNANA
09:00 7.1 6.4 95 0.9 25 5   99.45     LegendNANA
10:00 7.0 5.9 93 2.0 24 5   99.46     LegendNANA
11:00 6.8 4.8 87 0.0 24 10   99.48     LegendNANA
12:00 7.4 4.2 80 0.0 25 9   99.45     LegendNANA
13:00 8.1 2.8 69 0.0 26 14   99.47     LegendNANA
14:00 9.8 2.4 60 0.0 29 10   99.56     LegendNANA
15:00 4.8 2.6 85 0.0 1 11   99.67     LegendNANA
16:00 4.3 2.3 87 0.0 36 15   99.73     LegendNANA
17:00 4.7 3.0 89 0.0 2 8   99.78     LegendNANA
18:00 3.9 2.9 93 2.1 1 9   99.83     LegendNANA
19:00 3.3 2.1 92 1.4 2 12   99.90     LegendNANA
20:00 2.1 0.8 91 1.9 3 14   99.97     LegendNANA
21:00 0.6 0.1 97 3.4 1 21   100.04     LegendNANA
22:00 0.6 0.2 97 1.7 1 23   100.11     LegendNANA
23:00 0.9 -0.1 93 2.1 2 20   100.16     LegendNANA

Notes on Data Quality.

Legend

  • E = Estimated
  • M = Missing
  • NA = Not Available*
  • [empty] = Indicates an unobserved value
Date modified: